SKU315 SCAR-SCEL

Flight info

Callsign SKU315
Flight time 2h 9m
Altitude 37000
Route LOBAG5L LOBAG UQ803 SIMOK SIMOK7B
Aircraft A21N/M-SDE2E3FGHIRWXY/LB1

Departure

Time 2026-04-23 21:38
Airport Chacalluta International Airport (SCAR)

Arrival

Time 2026-04-23 23:48
Airport Comodoro Arturo Merino Benítez International Airport (SCEL)
Time Latitude Longitude Altitude Speed Heading
2026-04-23 21:18 -18.34885 -70.33630 160 ft 0 kts 109°
2026-04-23 21:30 -18.34882 -70.33640 160 ft 4 kts 109°
2026-04-23 21:30 -18.34877 -70.33667 160 ft 4 kts 88°
2026-04-23 21:30 -18.34882 -70.33694 160 ft 4 kts 63°
2026-04-23 21:30 -18.34892 -70.33710 160 ft 1 kts 52°
2026-04-23 21:31 -18.34893 -70.33712 160 ft 0 kts 52°
2026-04-23 21:33 -18.34888 -70.33708 160 ft 4 kts 34°
2026-04-23 21:33 -18.34857 -70.33697 160 ft 6 kts 17°
2026-04-23 21:33 -18.34817 -70.33684 160 ft 6 kts 17°
2026-04-23 21:34 -18.34806 -70.33680 160 ft 1 kts 19°
2026-04-23 21:34 -18.34790 -70.33674 161 ft 4 kts 19°
2026-04-23 21:34 -18.34765 -70.33665 161 ft 0 kts 20°
2026-04-23 21:34 -18.34755 -70.33661 161 ft 3 kts 20°
2026-04-23 21:35 -18.34732 -70.33652 161 ft 4 kts 20°
2026-04-23 21:35 -18.34681 -70.33633 162 ft 13 kts 19°
2026-04-23 21:35 -18.34585 -70.33598 164 ft 16 kts 19°
2026-04-23 21:35 -18.34473 -70.33557 167 ft 18 kts 19°
2026-04-23 21:36 -18.34255 -70.33477 173 ft 19 kts 19°
2026-04-23 21:36 -18.34124 -70.33429 177 ft 17 kts 19°
2026-04-23 21:36 -18.34034 -70.33410 179 ft 14 kts 349°
2026-04-23 21:37 -18.33961 -70.33475 179 ft 11 kts 295°
2026-04-23 21:37 -18.33952 -70.33522 179 ft 7 kts 262°
2026-04-23 21:37 -18.33985 -70.33560 179 ft 6 kts 201°
2026-04-23 21:37 -18.33993 -70.33563 179 ft 0 kts 198°
2026-04-23 21:38 -18.34085 -70.33595 176 ft 48 kts 199°
2026-04-23 21:38 -18.34645 -70.33801 159 ft 120 kts 200°
2026-04-23 21:38 -18.35557 -70.34130 449 ft 141 kts 199°
2026-04-23 21:38 -18.36475 -70.34425 1070 ft 139 kts 189°
2026-04-23 21:39 -18.37449 -70.34347 1559 ft 139 kts 176°
2026-04-23 21:39 -18.38418 -70.34275 1942 ft 144 kts 179°
2026-04-23 21:39 -18.39473 -70.34196 2338 ft 162 kts 178°
2026-04-23 21:39 -18.40668 -70.34107 2896 ft 183 kts 177°
2026-04-23 21:40 -18.42046 -70.34009 3288 ft 217 kts 177°
2026-04-23 21:40 -18.43664 -70.33894 3689 ft 248 kts 176°
2026-04-23 21:40 -18.45449 -70.33766 4263 ft 269 kts 176°
2026-04-23 21:40 -18.47347 -70.33626 5097 ft 277 kts 176°
2026-04-23 21:41 -18.49276 -70.33483 6046 ft 278 kts 175°
2026-04-23 21:41 -18.51204 -70.33339 6993 ft 278 kts 175°
2026-04-23 21:41 -18.53142 -70.33198 7872 ft 281 kts 175°
2026-04-23 21:41 -18.55102 -70.33057 8758 ft 284 kts 175°
2026-04-23 21:42 -18.57081 -70.32910 9635 ft 288 kts 175°
2026-04-23 21:42 -18.59104 -70.32732 10336 ft 297 kts 173°
2026-04-23 21:42 -18.61220 -70.32448 10758 ft 315 kts 172°
2026-04-23 21:42 -18.63442 -70.32131 11253 ft 328 kts 172°
2026-04-23 21:43 -18.65723 -70.31807 11966 ft 333 kts 172°
2026-04-23 21:43 -18.68032 -70.31480 12684 ft 338 kts 173°
2026-04-23 21:43 -18.70381 -70.31146 13367 ft 344 kts 173°
2026-04-23 21:43 -18.72772 -70.30808 14033 ft 349 kts 173°
2026-04-23 21:44 -18.75198 -70.30466 14626 ft 354 kts 173°
2026-04-23 21:44 -18.77664 -70.30114 15243 ft 359 kts 173°
2026-04-23 21:44 -18.80156 -70.29759 15858 ft 364 kts 173°
2026-04-23 21:44 -18.82679 -70.29404 16480 ft 368 kts 173°
2026-04-23 21:45 -18.85230 -70.29042 17100 ft 372 kts 173°
2026-04-23 21:45 -18.87805 -70.28675 17704 ft 377 kts 173°
2026-04-23 21:45 -18.90426 -70.28300 18297 ft 381 kts 173°
2026-04-23 21:45 -18.93037 -70.27931 18810 ft 385 kts 173°
2026-04-23 21:46 -18.95700 -70.27553 19340 ft 388 kts 173°
2026-04-23 21:46 -18.98388 -70.27172 19882 ft 391 kts 174°
2026-04-23 21:46 -19.01095 -70.26789 20411 ft 394 kts 174°
2026-04-23 21:46 -19.03819 -70.26411 20943 ft 397 kts 174°
2026-04-23 21:47 -19.06568 -70.26038 21458 ft 400 kts 174°
2026-04-23 21:47 -19.09342 -70.25677 21971 ft 403 kts 175°
2026-04-23 21:47 -19.12141 -70.25329 22499 ft 406 kts 175°
2026-04-23 21:47 -19.14960 -70.24972 23015 ft 409 kts 175°
2026-04-23 21:48 -19.17798 -70.24603 23524 ft 412 kts 175°
2026-04-23 21:48 -19.20653 -70.24227 23942 ft 415 kts 175°
2026-04-23 21:48 -19.23527 -70.23849 24368 ft 417 kts 175°
2026-04-23 21:48 -19.26416 -70.23471 24800 ft 419 kts 175°
2026-04-23 21:49 -19.29324 -70.23091 25216 ft 421 kts 175°
2026-04-23 21:49 -19.32239 -70.22710 25629 ft 423 kts 175°
2026-04-23 21:49 -19.35168 -70.22311 26043 ft 426 kts 174°
2026-04-23 21:49 -19.38116 -70.21910 26446 ft 428 kts 175°
2026-04-23 21:50 -19.41077 -70.21514 26838 ft 430 kts 175°
2026-04-23 21:50 -19.44063 -70.21233 27207 ft 431 kts 181°
2026-04-23 21:50 -19.47071 -70.21232 27599 ft 433 kts 183°
2026-04-23 21:50 -19.50060 -70.21266 27972 ft 435 kts 183°
2026-04-23 21:51 -19.53092 -70.21288 28337 ft 437 kts 182°
2026-04-23 21:51 -19.56140 -70.21302 28688 ft 439 kts 182°
2026-04-23 21:51 -19.59199 -70.21312 29037 ft 441 kts 182°
2026-04-23 21:51 -19.62284 -70.21319 29379 ft 443 kts 182°
2026-04-23 21:52 -19.65377 -70.21325 29710 ft 446 kts 182°
2026-04-23 21:52 -19.68479 -70.21340 30045 ft 448 kts 183°
2026-04-23 21:52 -19.71606 -70.21358 30298 ft 451 kts 183°
2026-04-23 21:52 -19.74757 -70.21375 30539 ft 453 kts 183°
2026-04-23 21:53 -19.77914 -70.21388 30793 ft 456 kts 183°
2026-04-23 21:53 -19.81101 -70.21397 31043 ft 458 kts 183°
2026-04-23 21:53 -19.84302 -70.21408 31295 ft 461 kts 183°
2026-04-23 21:53 -19.87521 -70.21416 31550 ft 463 kts 183°
2026-04-23 21:54 -19.89659 -70.21425 31713 ft 465 kts 183°
2026-04-23 21:54 -19.92909 -70.21436 31963 ft 468 kts 183°
2026-04-23 21:54 -19.96171 -70.21447 32206 ft 470 kts 183°
2026-04-23 21:54 -19.99450 -70.21460 32466 ft 472 kts 183°
2026-04-23 21:55 -20.03812 -70.21472 32872 ft 473 kts 183°
2026-04-23 21:55 -20.06039 -70.21479 33087 ft 473 kts 183°
2026-04-23 21:55 -20.09329 -70.21494 33398 ft 473 kts 184°
2026-04-23 21:55 -20.12586 -70.21504 33695 ft 473 kts 184°
2026-04-23 21:56 -20.15877 -70.21519 33999 ft 473 kts 184°
2026-04-23 21:56 -20.19167 -70.21534 34242 ft 473 kts 184°
2026-04-23 21:56 -20.22464 -70.21547 34498 ft 473 kts 184°
2026-04-23 21:56 -20.25764 -70.21556 34747 ft 473 kts 184°
2026-04-23 21:57 -20.29056 -70.21565 34988 ft 474 kts 184°
2026-04-23 21:57 -20.32360 -70.21576 35241 ft 474 kts 184°
2026-04-23 21:57 -20.35655 -70.21587 35476 ft 474 kts 184°
2026-04-23 21:57 -20.38960 -70.21598 35706 ft 474 kts 184°
2026-04-23 21:58 -20.42261 -70.21611 35919 ft 474 kts 184°
2026-04-23 21:58 -20.45518 -70.21624 36133 ft 474 kts 184°
2026-04-23 21:58 -20.48821 -70.21636 36345 ft 474 kts 184°
2026-04-23 21:58 -20.52126 -70.21650 36554 ft 474 kts 184°
2026-04-23 21:59 -20.55427 -70.21663 36766 ft 474 kts 184°
2026-04-23 21:59 -20.58730 -70.21675 36976 ft 474 kts 184°
2026-04-23 21:59 -20.62030 -70.21687 37056 ft 474 kts 184°
2026-04-23 22:00 -20.71912 -70.21715 37033 ft 473 kts 184°
2026-04-23 22:00 -20.78450 -70.21735 37029 ft 473 kts 185°
2026-04-23 22:01 -20.85027 -70.21767 37029 ft 472 kts 185°
2026-04-23 22:01 -20.91607 -70.21788 37029 ft 472 kts 184°
2026-04-23 22:02 -20.98183 -70.21808 37029 ft 472 kts 185°
2026-04-23 22:02 -21.04758 -70.21830 37028 ft 472 kts 185°
2026-04-23 22:03 -21.11292 -70.21850 37028 ft 472 kts 185°
2026-04-23 22:03 -21.17862 -70.21872 37028 ft 472 kts 185°
2026-04-23 22:04 -21.24444 -70.21900 37027 ft 472 kts 185°
2026-04-23 22:04 -21.31024 -70.21916 37032 ft 472 kts 185°
2026-04-23 22:05 -21.37601 -70.21939 37031 ft 472 kts 185°
2026-04-23 22:05 -21.44170 -70.21967 37029 ft 472 kts 185°
2026-04-23 22:06 -21.50745 -70.21990 37026 ft 472 kts 185°
2026-04-23 22:06 -21.57320 -70.22014 37041 ft 472 kts 185°
2026-04-23 22:07 -21.63855 -70.22031 37028 ft 472 kts 185°
2026-04-23 22:07 -21.70429 -70.22060 37021 ft 472 kts 185°
2026-04-23 22:08 -21.77006 -70.22079 37023 ft 472 kts 185°
2026-04-23 22:08 -21.83578 -70.22102 37029 ft 472 kts 185°
2026-04-23 22:09 -21.90144 -70.22258 37036 ft 467 kts 192°
2026-04-23 22:09 -21.96554 -70.23230 37017 ft 464 kts 195°
2026-04-23 22:10 -22.02945 -70.24251 37011 ft 464 kts 194°
2026-04-23 22:10 -22.09329 -70.25257 37017 ft 464 kts 194°
2026-04-23 22:11 -22.15674 -70.26252 37021 ft 464 kts 194°
2026-04-23 22:11 -22.22070 -70.27258 37036 ft 463 kts 195°
2026-04-23 22:12 -22.28441 -70.28261 37025 ft 463 kts 195°
2026-04-23 22:12 -22.34815 -70.29270 37021 ft 463 kts 195°
2026-04-23 22:13 -22.41191 -70.30273 37018 ft 463 kts 195°
2026-04-23 22:13 -22.47565 -70.31273 37019 ft 463 kts 195°
2026-04-23 22:14 -22.53936 -70.32281 37027 ft 463 kts 195°
2026-04-23 22:14 -22.60270 -70.33280 37020 ft 463 kts 195°
2026-04-23 22:15 -22.66638 -70.34301 37022 ft 463 kts 195°
2026-04-23 22:15 -22.73008 -70.35314 37021 ft 463 kts 195°
2026-04-23 22:16 -22.79387 -70.36327 37021 ft 463 kts 195°
2026-04-23 22:16 -22.85756 -70.37335 37026 ft 463 kts 196°
2026-04-23 22:17 -22.92235 -70.37834 37020 ft 471 kts 187°
2026-04-23 22:17 -22.98799 -70.37871 37018 ft 471 kts 187°
2026-04-23 22:18 -23.05353 -70.37917 37018 ft 471 kts 187°
2026-04-23 22:18 -23.11873 -70.37967 37018 ft 471 kts 187°
2026-04-23 22:19 -23.18438 -70.38015 37023 ft 471 kts 188°
2026-04-23 22:19 -23.24999 -70.38064 37037 ft 471 kts 188°
2026-04-23 22:20 -23.31556 -70.38116 37045 ft 471 kts 188°
2026-04-23 22:20 -23.38113 -70.38164 37053 ft 471 kts 188°
2026-04-23 22:21 -23.44664 -70.38217 37071 ft 471 kts 188°
2026-04-23 22:21 -23.51215 -70.38265 37056 ft 471 kts 188°
2026-04-23 22:22 -23.57768 -70.38314 37048 ft 471 kts 188°
2026-04-23 22:22 -23.64314 -70.38363 37041 ft 470 kts 188°
2026-04-23 22:23 -23.70818 -70.38416 37032 ft 470 kts 188°
2026-04-23 22:23 -23.77362 -70.38465 37027 ft 470 kts 189°
2026-04-23 22:24 -23.83931 -70.38349 37020 ft 473 kts 187°
2026-04-23 22:24 -23.90530 -70.38120 37022 ft 474 kts 187°
2026-04-23 22:25 -23.97133 -70.37900 37014 ft 475 kts 187°
2026-04-23 22:25 -24.03731 -70.37681 37016 ft 473 kts 187°
2026-04-23 22:26 -24.10317 -70.37464 37013 ft 473 kts 187°
2026-04-23 22:26 -24.16860 -70.37246 37014 ft 474 kts 187°
2026-04-23 22:27 -24.23499 -70.37021 37021 ft 474 kts 187°
2026-04-23 22:27 -24.30038 -70.36803 37021 ft 474 kts 187°
2026-04-23 22:28 -24.36632 -70.36584 37033 ft 472 kts 187°
2026-04-23 22:28 -24.43206 -70.36366 37030 ft 472 kts 187°
2026-04-23 22:29 -24.49783 -70.36141 37030 ft 472 kts 187°
2026-04-23 22:29 -24.56315 -70.35920 37026 ft 472 kts 187°
2026-04-23 22:30 -24.62869 -70.35702 37062 ft 471 kts 187°
2026-04-23 22:30 -24.69431 -70.35485 37057 ft 472 kts 188°
2026-04-23 22:31 -24.75992 -70.35262 37050 ft 472 kts 188°
2026-04-23 22:31 -24.82565 -70.35046 37052 ft 472 kts 188°
2026-04-23 22:32 -24.89133 -70.34826 37053 ft 472 kts 188°
2026-04-23 22:32 -24.95665 -70.34605 37069 ft 473 kts 188°
2026-04-23 22:33 -25.02248 -70.34381 37051 ft 473 kts 188°
2026-04-23 22:33 -25.08828 -70.34162 37056 ft 473 kts 188°
2026-04-23 22:34 -25.15406 -70.33943 37055 ft 473 kts 188°
2026-04-23 22:34 -25.21988 -70.33719 37084 ft 473 kts 188°
2026-04-23 22:35 -25.28579 -70.33496 37063 ft 473 kts 189°
2026-04-23 22:35 -25.35164 -70.33276 37056 ft 473 kts 189°
2026-04-23 22:36 -25.41747 -70.33055 37055 ft 473 kts 189°
2026-04-23 22:36 -25.48328 -70.32832 37054 ft 473 kts 189°
2026-04-23 22:37 -25.54911 -70.32610 37068 ft 472 kts 189°
2026-04-23 22:37 -25.61439 -70.32387 37057 ft 472 kts 189°
2026-04-23 22:38 -25.68002 -70.32163 37054 ft 472 kts 189°
2026-04-23 22:38 -25.74571 -70.31939 37056 ft 472 kts 189°
2026-04-23 22:39 -25.81146 -70.31713 37087 ft 472 kts 190°
2026-04-23 22:39 -25.87705 -70.31493 37059 ft 472 kts 190°
2026-04-23 22:40 -25.94271 -70.31270 37051 ft 473 kts 190°
2026-04-23 22:41 -26.04137 -70.30933 37052 ft 472 kts 190°
2026-04-23 22:41 -26.10574 -70.31156 37076 ft 461 kts 197°
2026-04-23 22:42 -26.16967 -70.31754 37053 ft 460 kts 197°
2026-04-23 22:42 -26.23349 -70.32344 37055 ft 460 kts 197°
2026-04-23 22:43 -26.29739 -70.32932 37056 ft 461 kts 197°
2026-04-23 22:43 -26.36137 -70.33518 37050 ft 461 kts 197°
2026-04-23 22:44 -26.41450 -70.34008 37081 ft 461 kts 198°
2026-04-23 22:44 -26.47845 -70.34594 37060 ft 460 kts 198°
2026-04-23 22:45 -26.54230 -70.35183 37054 ft 460 kts 198°
2026-04-23 22:45 -26.60619 -70.35769 37059 ft 461 kts 198°
2026-04-23 22:46 -26.67023 -70.36361 37058 ft 462 kts 198°
2026-04-23 22:46 -26.73404 -70.36947 37062 ft 458 kts 198°
2026-04-23 22:47 -26.79754 -70.37538 37048 ft 461 kts 198°
2026-04-23 22:47 -26.86066 -70.38122 37070 ft 458 kts 198°
2026-04-23 22:48 -26.92417 -70.38715 37064 ft 458 kts 198°
2026-04-23 22:48 -26.98780 -70.39308 37064 ft 458 kts 198°
2026-04-23 22:49 -27.05139 -70.39906 37061 ft 458 kts 198°
2026-04-23 22:49 -27.11491 -70.40502 37063 ft 458 kts 198°
2026-04-23 22:50 -27.17843 -70.41097 37064 ft 458 kts 198°
2026-04-23 22:50 -27.24199 -70.41689 37067 ft 458 kts 198°
2026-04-23 22:51 -27.30554 -70.42282 37085 ft 459 kts 199°
2026-04-23 22:51 -27.36883 -70.42873 37073 ft 459 kts 199°
2026-04-23 22:52 -27.43256 -70.43469 37066 ft 458 kts 199°
2026-04-23 22:52 -27.49613 -70.44066 37065 ft 458 kts 199°
2026-04-23 22:53 -27.55968 -70.44663 37089 ft 458 kts 199°
2026-04-23 22:53 -27.62328 -70.45263 37076 ft 458 kts 199°
2026-04-23 22:54 -27.68678 -70.45864 37073 ft 458 kts 199°
2026-04-23 22:54 -27.75033 -70.46463 37074 ft 458 kts 199°
2026-04-23 22:55 -27.81350 -70.47060 37069 ft 458 kts 199°
2026-04-23 22:55 -27.87699 -70.47659 37087 ft 457 kts 200°
2026-04-23 22:56 -27.94040 -70.48260 37071 ft 457 kts 200°
2026-04-23 22:56 -28.00381 -70.48868 37066 ft 456 kts 200°
2026-04-23 22:57 -28.06720 -70.49472 37068 ft 457 kts 200°
2026-04-23 22:57 -28.13031 -70.50070 37103 ft 456 kts 200°
2026-04-23 22:58 -28.19330 -70.50667 37079 ft 453 kts 200°
2026-04-23 22:58 -28.25602 -70.51269 37072 ft 452 kts 200°
2026-04-23 22:59 -28.31873 -70.51867 37078 ft 452 kts 200°
2026-04-23 22:59 -28.38140 -70.52464 37075 ft 452 kts 200°
2026-04-23 23:00 -28.44399 -70.53062 37106 ft 451 kts 200°
2026-04-23 23:00 -28.50669 -70.53660 37098 ft 451 kts 200°
2026-04-23 23:01 -28.56926 -70.54243 37092 ft 451 kts 200°
2026-04-23 23:01 -28.63143 -70.54819 37091 ft 450 kts 200°
2026-04-23 23:02 -28.69390 -70.55409 37129 ft 449 kts 201°
2026-04-23 23:02 -28.75600 -70.55992 37106 ft 447 kts 201°
2026-04-23 23:03 -28.81816 -70.56578 37101 ft 448 kts 201°
2026-04-23 23:03 -28.88014 -70.57160 37110 ft 447 kts 201°
2026-04-23 23:04 -28.94234 -70.57748 37119 ft 448 kts 201°
2026-04-23 23:04 -29.00387 -70.58336 37149 ft 444 kts 201°
2026-04-23 23:05 -29.06547 -70.58933 37127 ft 444 kts 201°
2026-04-23 23:05 -29.12707 -70.59535 37145 ft 445 kts 201°
2026-04-23 23:06 -29.18897 -70.60133 37157 ft 446 kts 201°
2026-04-23 23:06 -29.25097 -70.60739 37199 ft 447 kts 201°
2026-04-23 23:07 -29.31296 -70.61342 37142 ft 447 kts 201°
2026-04-23 23:07 -29.37477 -70.61960 37132 ft 445 kts 201°
2026-04-23 23:08 -29.43597 -70.62561 37127 ft 443 kts 201°
2026-04-23 23:08 -29.49763 -70.63164 37135 ft 445 kts 201°
2026-04-23 23:09 -29.55950 -70.63767 37151 ft 447 kts 200°
2026-04-23 23:09 -29.62151 -70.64379 37127 ft 447 kts 200°
2026-04-23 23:10 -29.68362 -70.64992 37140 ft 447 kts 200°
2026-04-23 23:10 -29.74561 -70.65604 37141 ft 448 kts 200°
2026-04-23 23:11 -29.80780 -70.66214 37126 ft 447 kts 200°
2026-04-23 23:11 -29.86937 -70.66821 37124 ft 447 kts 200°
2026-04-23 23:12 -29.93133 -70.67431 37137 ft 447 kts 200°
2026-04-23 23:12 -29.99330 -70.68045 37133 ft 447 kts 200°
2026-04-23 23:13 -30.05536 -70.68658 37130 ft 448 kts 200°
2026-04-23 23:13 -30.11755 -70.69267 37141 ft 449 kts 199°
2026-04-23 23:14 -30.17977 -70.69883 37130 ft 449 kts 199°
2026-04-23 23:14 -30.24211 -70.70501 37128 ft 449 kts 199°
2026-04-23 23:15 -30.30384 -70.71112 37138 ft 447 kts 200°
2026-04-23 23:15 -30.36602 -70.71730 37180 ft 449 kts 199°
2026-04-23 23:16 -30.42830 -70.72349 37155 ft 450 kts 199°
2026-04-23 23:16 -30.49072 -70.72969 37152 ft 449 kts 198°
2026-04-23 23:17 -30.55308 -70.73593 37147 ft 450 kts 198°
2026-04-23 23:17 -30.61562 -70.74215 37194 ft 451 kts 198°
2026-04-23 23:18 -30.67814 -70.74815 37131 ft 451 kts 197°
2026-04-23 23:18 -30.74081 -70.75418 37123 ft 451 kts 197°
2026-04-23 23:19 -30.80306 -70.76026 37124 ft 451 kts 197°
2026-04-23 23:19 -30.86562 -70.76634 37125 ft 450 kts 197°
2026-04-23 23:20 -30.92805 -70.77237 37139 ft 450 kts 197°
2026-04-23 23:20 -30.99048 -70.77845 37131 ft 449 kts 197°
2026-04-23 23:21 -31.05239 -70.78443 37138 ft 444 kts 196°
2026-04-23 23:21 -31.11424 -70.79053 36852 ft 446 kts 196°
2026-04-23 23:21 -31.14530 -70.79357 36571 ft 447 kts 196°
2026-04-23 23:22 -31.17632 -70.79661 36353 ft 447 kts 195°
2026-04-23 23:22 -31.20730 -70.79964 36113 ft 446 kts 195°
2026-04-23 23:22 -31.23818 -70.80264 35870 ft 444 kts 195°
2026-04-23 23:22 -31.26889 -70.80566 35632 ft 442 kts 195°
2026-04-23 23:23 -31.29945 -70.80865 35391 ft 440 kts 195°
2026-04-23 23:23 -31.32986 -70.81164 35159 ft 437 kts 195°
2026-04-23 23:23 -31.35977 -70.81461 34933 ft 434 kts 195°
2026-04-23 23:23 -31.39023 -70.81761 34693 ft 432 kts 195°
2026-04-23 23:24 -31.41970 -70.82049 34439 ft 429 kts 194°
2026-04-23 23:24 -31.44934 -70.82340 33966 ft 426 kts 193°
2026-04-23 23:24 -31.47877 -70.82628 33434 ft 422 kts 193°
2026-04-23 23:24 -31.50789 -70.82916 32892 ft 417 kts 192°
2026-04-23 23:25 -31.53667 -70.83199 32398 ft 413 kts 193°
2026-04-23 23:25 -31.56527 -70.83481 31901 ft 412 kts 192°
2026-04-23 23:25 -31.59374 -70.83763 31382 ft 410 kts 192°
2026-04-23 23:25 -31.62207 -70.84046 30898 ft 407 kts 191°
2026-04-23 23:26 -31.65025 -70.84326 30434 ft 405 kts 191°
2026-04-23 23:26 -31.67826 -70.84606 29911 ft 404 kts 190°
2026-04-23 23:26 -31.70627 -70.84883 29353 ft 402 kts 190°
2026-04-23 23:26 -31.73411 -70.85158 28820 ft 399 kts 190°
2026-04-23 23:27 -31.76190 -70.85305 28327 ft 400 kts 184°
2026-04-23 23:27 -31.78938 -70.85226 27826 ft 399 kts 183°
2026-04-23 23:27 -31.81709 -70.85122 27321 ft 398 kts 183°
2026-04-23 23:27 -31.84468 -70.85016 26816 ft 396 kts 183°
2026-04-23 23:28 -31.87219 -70.84917 26311 ft 394 kts 183°
2026-04-23 23:28 -31.89951 -70.84818 25835 ft 390 kts 183°
2026-04-23 23:28 -31.92650 -70.84721 25380 ft 385 kts 182°
2026-04-23 23:28 -31.95321 -70.84625 24939 ft 381 kts 182°
2026-04-23 23:29 -31.97965 -70.84530 24458 ft 378 kts 182°
2026-04-23 23:29 -32.00549 -70.84437 24001 ft 375 kts 182°
2026-04-23 23:29 -32.03144 -70.84345 23512 ft 372 kts 182°
2026-04-23 23:29 -32.05719 -70.84253 22993 ft 368 kts 182°
2026-04-23 23:30 -32.08257 -70.84160 22508 ft 363 kts 182°
2026-04-23 23:30 -32.10773 -70.84068 22039 ft 359 kts 182°
2026-04-23 23:30 -32.13253 -70.83978 21579 ft 355 kts 182°
2026-04-23 23:30 -32.15719 -70.83888 21127 ft 352 kts 182°
2026-04-23 23:31 -32.18153 -70.83799 20697 ft 349 kts 181°
2026-04-23 23:31 -32.20566 -70.83713 20292 ft 345 kts 181°
2026-04-23 23:31 -32.22153 -70.83656 20019 ft 342 kts 181°
2026-04-23 23:31 -32.24521 -70.83571 19616 ft 339 kts 181°
2026-04-23 23:32 -32.26880 -70.83488 19218 ft 339 kts 181°
2026-04-23 23:32 -32.29241 -70.83405 18826 ft 339 kts 181°
2026-04-23 23:32 -32.31599 -70.83322 18453 ft 339 kts 181°
2026-04-23 23:32 -32.33963 -70.83237 18036 ft 340 kts 181°
2026-04-23 23:33 -32.36335 -70.83151 17617 ft 341 kts 181°
2026-04-23 23:33 -32.38710 -70.83065 17210 ft 342 kts 181°
2026-04-23 23:33 -32.41088 -70.82978 16825 ft 342 kts 180°
2026-04-23 23:33 -32.43472 -70.82892 16459 ft 343 kts 180°
2026-04-23 23:34 -32.45861 -70.82807 16098 ft 343 kts 180°
2026-04-23 23:34 -32.48217 -70.82723 15741 ft 343 kts 180°
2026-04-23 23:34 -32.50596 -70.82639 15366 ft 341 kts 180°
2026-04-23 23:34 -32.52965 -70.82553 14978 ft 338 kts 180°
2026-04-23 23:35 -32.55311 -70.82466 14627 ft 337 kts 180°
2026-04-23 23:35 -32.57654 -70.82380 14284 ft 337 kts 180°
2026-04-23 23:35 -32.60004 -70.82295 13909 ft 338 kts 180°
2026-04-23 23:35 -32.62360 -70.82210 13520 ft 339 kts 179°
2026-04-23 23:36 -32.64702 -70.82126 13137 ft 334 kts 179°
2026-04-23 23:36 -32.67005 -70.82043 12746 ft 327 kts 179°
2026-04-23 23:36 -32.69258 -70.81961 12390 ft 321 kts 179°
2026-04-23 23:36 -32.71474 -70.81880 12049 ft 317 kts 179°
2026-04-23 23:37 -32.73663 -70.81799 11682 ft 312 kts 179°
2026-04-23 23:37 -32.75825 -70.81721 11321 ft 309 kts 179°
2026-04-23 23:37 -32.77918 -70.81643 11110 ft 300 kts 179°
2026-04-23 23:37 -32.79995 -70.81567 10963 ft 290 kts 179°
2026-04-23 23:38 -32.81977 -70.81496 10636 ft 288 kts 179°
2026-04-23 23:38 -32.83982 -70.81424 10278 ft 288 kts 179°
2026-04-23 23:38 -32.85979 -70.81351 9932 ft 286 kts 179°
2026-04-23 23:38 -32.87969 -70.81279 9547 ft 284 kts 179°
2026-04-23 23:39 -32.89943 -70.81207 9174 ft 283 kts 179°
2026-04-23 23:39 -32.91901 -70.81167 8832 ft 280 kts 182°
2026-04-23 23:39 -32.93828 -70.81387 8516 ft 277 kts 187°
2026-04-23 23:39 -32.95709 -70.81674 8155 ft 276 kts 188°
2026-04-23 23:40 -32.97604 -70.81967 7827 ft 274 kts 188°
2026-04-23 23:40 -32.99487 -70.82254 7495 ft 272 kts 187°
2026-04-23 23:40 -33.01373 -70.82381 7155 ft 271 kts 178°
2026-04-23 23:40 -33.03233 -70.82182 6912 ft 265 kts 176°
2026-04-23 23:41 -33.05036 -70.82079 6754 ft 254 kts 176°
2026-04-23 23:41 -33.06763 -70.81984 6625 ft 242 kts 177°
2026-04-23 23:41 -33.08404 -70.81896 6495 ft 230 kts 177°
2026-04-23 23:41 -33.09965 -70.81814 6324 ft 220 kts 177°
2026-04-23 23:42 -33.11480 -70.81733 6026 ft 216 kts 177°
2026-04-23 23:42 -33.12976 -70.81654 5694 ft 215 kts 176°
2026-04-23 23:42 -33.14459 -70.81576 5388 ft 212 kts 177°
2026-04-23 23:42 -33.15892 -70.81500 5213 ft 199 kts 176°
2026-04-23 23:43 -33.17222 -70.81430 5109 ft 185 kts 177°
2026-04-23 23:43 -33.18460 -70.81364 4995 ft 171 kts 176°
2026-04-23 23:43 -33.19642 -70.81302 4877 ft 172 kts 176°
2026-04-23 23:43 -33.20818 -70.81240 4709 ft 171 kts 176°
2026-04-23 23:44 -33.22024 -70.81176 4496 ft 171 kts 177°
2026-04-23 23:44 -33.23197 -70.81114 4282 ft 171 kts 176°
2026-04-23 23:44 -33.24381 -70.81051 4059 ft 170 kts 176°
2026-04-23 23:44 -33.25556 -70.80989 3836 ft 168 kts 176°
2026-04-23 23:45 -33.26722 -70.80927 3621 ft 168 kts 177°
2026-04-23 23:45 -33.27869 -70.80867 3441 ft 154 kts 176°
2026-04-23 23:45 -33.28851 -70.80814 3214 ft 134 kts 177°
2026-04-23 23:45 -33.29783 -70.80765 3032 ft 134 kts 177°
2026-04-23 23:46 -33.30711 -70.80715 2856 ft 133 kts 178°
2026-04-23 23:46 -33.31627 -70.80667 2684 ft 131 kts 177°
2026-04-23 23:46 -33.32538 -70.80618 2505 ft 131 kts 177°
2026-04-23 23:46 -33.33446 -70.80570 2333 ft 130 kts 177°
2026-04-23 23:47 -33.34351 -70.80522 2150 ft 130 kts 176°
2026-04-23 23:47 -33.35253 -70.80474 1985 ft 130 kts 176°
2026-04-23 23:47 -33.36155 -70.80426 1841 ft 130 kts 176°
2026-04-23 23:47 -33.37060 -70.80378 1667 ft 129 kts 177°
2026-04-23 23:48 -33.37902 -70.80335 1578 ft 95 kts 178°
2026-04-23 23:48 -33.38352 -70.80312 1578 ft 37 kts 177°
2026-04-23 23:48 -33.38582 -70.80299 1579 ft 34 kts 177°
2026-04-23 23:48 -33.38826 -70.80285 1580 ft 36 kts 177°
2026-04-23 23:49 -33.39246 -70.80245 1578 ft 21 kts 159°
2026-04-23 23:49 -33.39374 -70.80166 1575 ft 21 kts 147°
2026-04-23 23:49 -33.39488 -70.80078 1572 ft 17 kts 135°
2026-04-23 23:50 -33.39531 -70.79967 1571 ft 15 kts 89°
2026-04-23 23:50 -33.39529 -70.79887 1570 ft 9 kts 88°
2026-04-23 23:50 -33.39527 -70.79804 1570 ft 11 kts 87°
2026-04-23 23:50 -33.39523 -70.79722 1570 ft 7 kts 87°
2026-04-23 23:51 -33.39520 -70.79653 1570 ft 9 kts 86°
2026-04-23 23:51 -33.39526 -70.79618 1570 ft 4 kts 142°
2026-04-23 23:51 -33.39562 -70.79609 1570 ft 7 kts 175°
2026-04-23 23:51 -33.39592 -70.79607 1570 ft 3 kts 178°
2026-04-23 23:52 -33.39599 -70.79607 1570 ft 0 kts 176°